Temperature
15 15 15 15 15 15 15 15 15 15 15 15 16 16 16 16 16 15 16 16 15 15 15 15 15 15 15 15 15 15 15 15 15 15 15 14 14 14
15 15 15 15 15 15 15 15 15 15 15 15 15 15 15 15 15 15 15 15 15 15 15 15 15 15 15 15 15 15 15 15 14 14 14 14 14 14
14 15 15 15 15 15 15 15 15 15 15 15 15 15 15 15 15 15 15 15 14 14 15 15 15 14 15 15 14 14 14 14 14 14 14 14 14 13
14 14 14 14 14 14 14 14 14 14 14 14 14 14 14 14 14 14 14 14 14 14 14 14 14 14 14 14 14 14 14 14 14 14 14 14 13 13
14 14 14 14 14 14 14 14 14 14 14 14 14 14 14 14 14 14 14 14 14 14 14 14 14 14 14 14 14 13 13 13 13 13 13 13 13 13
14 14 14 14 14 14 14 14 14 14 14 14 14 14 14 14 14 14 13 13 13 13 13 13 13 13 13 13 13 13 13 13 13 13 13 13 12 12
13 13 13 13 13 13 14 14 14 14 14 14 14 13 13 13 13 13 13 13 13 13 13 12 12 12 13 12 12 13 12 12 12 12 12 12 12 12
13 13 13 13 13 13 13 13 13 14 14 13 13 13 13 13 13 13 13 13 12 12 12 12 12 12 12 12 12 12 12 12 12 12 12 12 12 11
12 13 13 13 13 13 13 13 13 13 13 13 13 13 13 13 13 13 13 13 13 12 12 12 11 11 11 11 11 11 11 11 11 11 11 11 11 11
12 12 12 12 12 13 13 13 13 13 13 13 13 13 13 13 13 13 13 12 12 12 12 11 11 11 11 11 11 11 11 11 11 11 11 11 10 10
12 12 12 12 12 12 13 13 13 13 13 13 13 13 13 13 12 12 12 12 12 11 11 11 11 10 10 10 10 10 10 10 10 10 10 10 10 10
12 12 12 12 12 12 12 13 12 12 12 12 12 12 12 12 12 12 12 12 12 11 11 11 11 10 10 10 9 10 10 10 10 10 9 9 9 9
11 12 12 12 12 12 12 12 12 12 12 12 12 12 12 12 12 12 12 12 12 12 11 11 11 11 10 10 9 9 9 9 9 9 9 9 9 8
11 11 11 12 12 12 12 12 12 12 12 12 12 12 12 12 11 11 11 12 11 11 11 11 11 11 10 10 9 9 8 8 8 8 8 8 8 8
11 11 11 11 11 11 11 11 11 11 12 12 11 11 11 11 11 11 11 11 11 11 11 11 11 11 10 10 9 9 8 8 8 8 7 7 7 7
10 10 11 11 11 11 11 11 11 11 11 11 11 11 11 10 10 10 10 10 10 10 10 10 10 10 10 9 9 8 8 8 7 7 7 7 7 7
10 10 10 10 10 10 10 11 11 11 11 11 10 10 10 10 10 10 10 10 10 10 10 9 9 9 9 9 9 8 8 8 7 7 7 6 6 7
10 10 10 10 10 10 10 10 10 10 10 10 10 10 10 10 10 10 9 10 9 9 9 9 9 9 9 8 8 8 8 7 7 7 7 6 6 6
10 10 10 10 10 10 10 10 9 9 10 10 9 9 9 9 9 9 9 9 9 9 8 8 8 8 8 8 8 8 7 7 7 7 6 6 6 6
10 9 9 9 9 9 9 9 9 9 9 9 9 9 9 9 9 9 9 9 9 8 8 8 8 8 8 8 8 7 7 7 7 7 6 6 6 6
9 9 9 9 9 9 9 9 9 9 9 9 9 9 9 9 9 9 9 8 8 8 8 8 8 8 8 8 7 7 7 7 7 7 7 6 6 6
10 10 10 10 9 9 9 9 9 9 8 8 9 9 8 8 8 8 8 8 8 8 8 8 8 8 7 7 7 7 7 7 7 7 7 6 6 6
10 10 10 10 10 10 9 9 9 8 8 8 8 8 8 8 8 8 8 8 8 8 7 7 7 7 7 7 7 7 7 6 6 6 6 6 6 6
Wind_Speed
5 5 4 4 4 3 3 4 4 3 4 3 2 1 3 5 8 8 7 12 13 12 11 10 10 9 8 7 6 4 3 2 2 2 2 2 2 3
4 4 4 4 4 3 3 3 4 4 3 3 2 2 2 4 7 7 6 8 10 10 10 9 9 8 7 6 5 4 3 3 2 3 3 2 3 3
2 3 4 4 4 4 4 4 4 4 3 2 2 2 3 2 3 5 7 8 8 9 9 8 8 7 6 6 5 4 3 3 3 3 3 3 3 3
2 3 3 3 4 3 4 4 4 4 3 3 2 2 2 3 4 4 5 7 8 10 10 9 8 6 6 5 4 3 2 1 1 2 2 2 2 3
3 3 3 3 3 3 3 3 3 3 3 3 3 2 2 3 3 3 4 4 7 10 10 9 8 7 6 6 5 4 3 2 2 1 1 1 1 2
3 3 3 3 3 3 3 3 3 3 4 4 3 2 2 3 3 3 3 3 4 7 8 10 10 10 9 8 7 6 5 5 4 3 3 2 2 2
6 5 5 6 5 4 3 3 3 3 4 4 3 3 3 3 3 3 5 5 4 4 5 6 8 8 9 10 9 8 8 7 6 5 5 5 4 4
6 5 6 7 8 8 8 7 5 4 4 4 3 4 4 3 4 4 5 5 3 3 5 6 7 7 8 9 10 11 10 10 9 8 8 7 7 6
6 5 5 7 7 5 7 9 9 8 5 4 5 4 4 3 4 4 4 4 4 4 6 5 5 6 8 10 12 12 12 12 11 9 8 8 8 8
6 7 6 7 7 6 6 8 8 8 7 6 6 5 5 4 4 5 6 6 5 4 4 4 3 4 6 9 12 13 14 13 13 12 11 9 8 9
8 8 8 8 10 9 7 8 8 7 10 13 12 11 12 11 7 5 5 6 4 2 2 3 4 4 4 3 8 12 14 14 14 14 12 11 9 9
7 8 12 10 10 8 6 6 7 5 5 6 7 8 8 9 9 5 4 5 4 3 2 3 4 4 3 2 3 6 10 12 14 15 15 14 12 8
6 6 7 11 12 10 8 6 5 4 4 6 6 6 6 6 6 7 6 4 4 3 2 3 3 3 4 3 2 3 5 5 6 9 12 14 14 12
5 4 5 9 10 9 7 7 7 6 5 5 6 5 5 5 5 6 10 11 9 6 5 4 3 3 4 4 3 2 3 5 6 5 7 9 11 12
4 5 5 7 6 6 8 8 6 5 5 6 6 5 4 4 4 5 7 10 12 13 13 11 5 5 5 4 4 3 2 2 4 3 4 4 4 6
4 4 5 6 5 5 5 5 5 5 5 5 5 4 3 4 4 3 4 5 6 6 11 16 14 8 6 6 5 4 3 2 1 2 2 3 6 9
3 2 3 3 4 4 4 5 5 5 5 4 4 4 4 4 3 3 3 4 5 4 5 5 13 16 10 6 5 4 3 3 1 1 1 2 2 7
4 3 4 4 4 4 4 4 4 4 3 3 3 3 3 3 3 2 3 4 5 4 4 3 3 4 4 6 6 3 3 2 1 0 1 1 1 3
3 3 4 4 4 4 4 3 3 3 3 3 3 3 3 3 3 3 3 4 4 4 3 2 2 2 2 2 2 5 2 1 0 0 0 1 1 2
2 3 3 3 3 3 3 3 3 3 3 3 3 3 3 3 3 3 3 3 3 3 3 3 3 3 2 3 3 1 3 2 1 1 1 1 0 2
2 2 2 2 2 3 3 2 2 2 2 2 3 2 2 3 2 3 4 4 3 3 4 2 1 1 0 3 3 2 0 2 2 2 1 1 1 1
2 2 2 2 2 2 2 1 1 1 2 2 2 2 2 2 3 3 3 3 2 3 4 3 1 0 1 1 2 3 3 2 1 1 2 3 3 2
3 3 3 2 2 1 0 1 1 1 1 2 2 1 1 2 2 2 2 3 3 3 3 3 1 1 1 1 1 2 3 3 3 2 3 9 10 10
Wind_Direction
200 193 182 178 184 190 184 177 176 190 216 208 193 166 139 142 158 174 175 188 192 194 196 199 202 205 205 205 203 202 203 216 229 239 272 272 278 299
186 184 181 179 181 184 185 187 187 180 197 198 186 170 159 154 163 171 170 175 181 184 190 193 197 201 200 196 190 191 199 216 230 249 258 266 276 288
158 173 183 176 176 183 183 189 189 177 187 197 161 162 153 155 160 167 155 146 157 174 176 177 176 181 184 182 178 184 202 225 247 261 254 263 274 283
144 137 159 167 173 175 178 184 181 182 177 176 153 155 166 161 164 163 149 144 144 159 161 160 156 155 157 158 161 166 176 204 266 276 259 270 280 290
137 139 140 141 154 162 165 158 164 166 153 153 151 149 144 144 142 132 127 121 136 144 147 142 136 132 133 128 121 110 99 81 60 48 33 331 310 309
99 104 110 125 126 127 133 134 140 141 140 138 141 137 126 126 126 126 119 112 113 124 123 123 118 109 102 98 95 89 82 72 61 54 49 41 27 12
57 65 75 88 87 89 106 108 117 122 132 137 139 129 127 126 134 132 124 112 91 101 107 110 105 91 84 78 77 76 73 68 63 62 60 59 59 58
62 63 70 76 79 80 86 92 97 104 119 124 131 132 132 129 127 130 129 126 112 105 103 94 89 83 76 76 76 76 73 70 68 66 66 67 70 71
56 56 63 66 68 81 86 79 66 64 85 107 109 113 122 132 128 125 128 117 117 132 110 97 90 87 80 76 81 79 74 70 68 66 65 67 74 79
55 55 61 57 50 63 84 80 69 52 61 77 86 83 81 83 104 121 124 110 101 109 112 108 111 99 93 81 80 82 79 74 70 66 64 66 78 84
63 58 57 54 41 60 87 94 87 76 74 85 91 91 81 75 83 99 113 121 119 117 100 108 128 116 105 93 86 86 84 79 73 66 61 61 75 95
64 59 50 47 43 56 79 94 94 95 98 94 85 83 80 74 75 86 104 123 124 115 105 108 144 139 120 110 121 105 90 83 78 71 65 60 63 79
57 50 41 42 45 53 68 76 85 93 89 90 86 79 71 66 61 62 66 93 106 98 113 111 145 142 123 128 106 100 106 103 90 76 71 66 63 64
60 51 43 42 45 51 60 58 60 70 83 85 82 74 71 68 64 67 71 70 75 85 77 92 119 128 122 119 120 97 71 75 82 88 89 80 71 69
59 60 52 44 45 56 58 54 55 71 78 83 85 80 79 79 72 70 72 71 63 61 61 65 81 98 106 116 125 132 111 62 62 75 85 87 83 69
44 53 53 50 57 53 48 52 62 74 89 94 94 90 81 74 72 81 95 91 72 52 52 62 69 81 92 97 107 110 107 113 56 67 80 83 90 87
357 44 60 59 59 56 53 51 55 62 71 76 90 92 87 83 77 67 82 93 100 97 71 58 75 77 71 81 96 96 102 99 100 72 80 87 110 113
23 53 57 58 62 63 62 59 57 56 64 77 86 94 96 98 96 81 85 101 107 107 110 114 108 91 75 48 41 90 93 106 137 114 96 100 115 134
41 62 63 56 57 60 61 66 66 53 51 72 87 93 91 89 95 95 93 98 105 109 108 102 95 115 136 133 16 36 95 124 90 1 334 134 168 182
65 69 70 65 60 62 58 60 68 56 50 66 79 85 90 93 95 97 98 104 117 116 98 65 59 68 104 145 154 120 51 84 100 64 328 332 157 143
87 82 77 76 75 78 67 47 58 72 69 79 84 84 90 100 102 104 105 96 97 116 117 112 134 148 57 78 99 130 148 85 114 142 130 29 329 314
126 129 121 101 92 94 94 62 51 75 70 78 88 84 79 99 119 124 131 134 123 117 122 145 185 154 70 115 140 159 180 207 193 167 186 180 169 196
166 160 156 150 134 120 146 206 205 154 136 120 121 111 100 97 99 112 120 120 116 124 131 144 151 105 91 112 133 160 178 191 198 215 257 235 226 231
Height
1506 1508 1510 1513 1516 1519 1521 1524 1527 1528 1530 1531 1533 1534 1536 1538 1540 1542 1544 1546 1548 1551 1553 1554 1556 1558 1559 1560 1561 1562 1563 1563 1563 1564 1564 1563 1563 1563
1502 1505 1507 1510 1512 1515 1517 1520 1522 1525 1526 1528 1529 1531 1533 1535 1537 1539 1540 1542 1544 1547 1548 1551 1553 1555 1556 1557 1558 1559 1560 1561 1561 1561 1561 1561 1560 1560
1500 1502 1504 1507 1509 1511 1514 1516 1519 1521 1523 1525 1527 1529 1531 1532 1534 1536 1537 1539 1541 1543 1545 1547 1549 1551 1553 1554 1555 1556 1557 1557 1558 1558 1558 1558 1557 1557
1499 1500 1502 1504 1506 1508 1511 1513 1516 1517 1520 1522 1524 1526 1528 1530 1532 1534 1535 1536 1538 1540 1542 1544 1546 1548 1550 1551 1552 1553 1554 1554 1555 1555 1555 1554 1554 1554
1498 1499 1501 1503 1505 1506 1508 1511 1513 1515 1517 1519 1521 1524 1526 1528 1530 1532 1533 1535 1537 1538 1540 1542 1544 1546 1547 1548 1550 1550 1551 1552 1552 1552 1551 1551 1551 1550
1498 1499 1501 1502 1504 1505 1507 1509 1511 1513 1515 1517 1520 1522 1525 1527 1529 1530 1532 1534 1536 1538 1539 1540 1542 1544 1545 1546 1547 1548 1548 1549 1549 1549 1549 1548 1548 1547
1498 1499 1500 1501 1503 1505 1506 1508 1510 1511 1514 1516 1519 1521 1523 1525 1527 1529 1531 1533 1535 1537 1538 1540 1541 1542 1544 1545 1545 1546 1546 1547 1547 1546 1546 1546 1545 1544
1499 1500 1500 1501 1503 1505 1506 1508 1510 1512 1513 1516 1518 1520 1523 1525 1527 1528 1530 1532 1535 1537 1538 1540 1541 1542 1543 1544 1544 1544 1545 1545 1545 1544 1544 1543 1543 1542
1501 1501 1502 1503 1504 1505 1507 1509 1510 1512 1514 1516 1518 1520 1522 1524 1526 1528 1530 1532 1534 1536 1538 1539 1541 1542 1543 1543 1543 1544 1544 1543 1543 1543 1542 1541 1541 1540
1503 1503 1504 1504 1505 1507 1508 1510 1511 1513 1515 1517 1519 1520 1523 1524 1526 1528 1530 1532 1534 1536 1538 1539 1541 1542 1542 1543 1543 1543 1543 1543 1542 1541 1541 1540 1539 1539
1505 1506 1506 1507 1508 1509 1510 1511 1513 1515 1516 1518 1519 1521 1523 1525 1526 1528 1530 1531 1533 1536 1538 1539 1540 1541 1542 1543 1543 1543 1543 1542 1541 1540 1540 1539 1538 1537
1507 1508 1509 1509 1511 1512 1513 1514 1515 1516 1518 1519 1521 1523 1524 1526 1527 1529 1530 1532 1533 1535 1537 1538 1539 1541 1542 1543 1543 1543 1543 1542 1541 1540 1540 1539 1538 1537
1510 1510 1511 1512 1513 1514 1515 1516 1517 1518 1520 1521 1522 1524 1525 1527 1528 1529 1531 1532 1533 1534 1536 1537 1539 1540 1541 1542 1542 1543 1543 1542 1541 1541 1540 1539 1538 1537
1513 1513 1514 1515 1516 1517 1517 1518 1519 1520 1521 1523 1524 1525 1526 1527 1529 1530 1531 1532 1533 1534 1536 1537 1537 1538 1539 1540 1542 1542 1543 1542 1541 1541 1540 1539 1538 1537
1516 1516 1517 1517 1518 1519 1519 1520 1521 1522 1523 1524 1525 1526 1528 1529 1530 1531 1532 1533 1533 1534 1535 1536 1537 1538 1539 1540 1541 1541 1542 1542 1541 1541 1540 1539 1538 1537
1518 1519 1519 1519 1520 1520 1521 1522 1523 1524 1524 1525 1526 1528 1529 1530 1530 1531 1532 1533 1534 1535 1536 1536 1537 1538 1539 1540 1540 1541 1541 1541 1541 1541 1540 1539 1538 1537
1520 1521 1521 1521 1522 1522 1523 1524 1524 1525 1526 1527 1528 1529 1530 1531 1531 1532 1533 1534 1535 1535 1536 1537 1537 1538 1539 1540 1540 1540 1541 1541 1541 1540 1540 1539 1538 1537
1522 1522 1522 1523 1523 1524 1524 1525 1526 1526 1527 1528 1529 1530 1530 1531 1532 1533 1534 1535 1535 1536 1536 1537 1538 1539 1540 1540 1541 1540 1540 1540 1540 1540 1539 1539 1538 1537
1523 1523 1524 1524 1524 1525 1525 1526 1527 1527 1528 1529 1529 1530 1531 1532 1532 1533 1534 1535 1535 1536 1537 1538 1538 1539 1539 1540 1540 1541 1540 1540 1539 1539 1539 1538 1537 1537
1524 1524 1524 1524 1525 1525 1526 1526 1527 1527 1528 1529 1530 1530 1531 1532 1533 1533 1534 1535 1536 1536 1537 1537 1538 1538 1539 1539 1539 1540 1539 1539 1539 1538 1538 1537 1537 1536
1524 1524 1524 1525 1525 1525 1525 1526 1527 1527 1528 1529 1529 1530 1531 1532 1533 1533 1534 1535 1536 1536 1536 1537 1537 1538 1538 1538 1539 1538 1539 1538 1538 1537 1537 1536 1535 1535
1524 1524 1524 1524 1524 1525 1525 1525 1526 1527 1528 1528 1529 1530 1530 1531 1532 1533 1533 1534 1535 1535 1536 1536 1536 1536 1537 1537 1537 1537 1537 1537 1537 1536 1535 1535 1534 1533
1523 1523 1523 1523 1523 1524 1524 1525 1525 1526 1526 1527 1528 1529 1529 1530 1531 1532 1533 1533 1534 1534 1535 1535 1535 1535 1536 1536 1536 1536 1536 1535 1535 1534 1534 1534 1533 1532